Time,TemperatureF,DewpointF,PressureIn,WindDirection,WindDirectionDegrees,WindSpeedMPH,WindSpeedGustMPH,Humidity,HourlyPrecipIn,Conditions,Clouds,dailyrainin,SoftwareType,DateUTC
2013-05-17 00:03:00,68.0,61.0,29.93,North,0,0.0,0.0,79,75.30,,,-99.99,,2013-05-17 05:03:00,
2013-05-17 00:14:00,68.0,61.0,29.93,North,0,0.0,0.0,79,75.30,,,-99.99,,2013-05-17 05:14:00,
2013-05-17 00:22:00,67.0,61.0,29.93,North,0,0.0,0.0,80,75.30,,,-99.99,,2013-05-17 05:22:00,
2013-05-17 00:32:00,66.0,61.0,29.93,North,0,0.0,0.0,83,75.30,,,-99.99,,2013-05-17 05:32:00,
2013-05-17 00:42:00,66.0,61.0,29.93,North,0,0.0,0.0,83,75.30,,,-99.99,,2013-05-17 05:42:00,
2013-05-17 00:52:00,66.0,61.0,29.94,North,0,0.0,0.0,85,75.30,,,-99.99,,2013-05-17 05:52:00,
2013-05-17 01:02:00,65.0,61.0,29.94,North,0,0.0,0.0,87,75.30,,,-99.99,,2013-05-17 06:02:00,
2013-05-17 01:11:00,65.0,61.0,29.94,North,0,0.0,0.0,87,75.30,,,-99.99,,2013-05-17 06:11:00,
2013-05-17 01:21:00,65.0,62.0,29.93,North,0,0.0,0.0,89,75.30,,,-99.99,,2013-05-17 06:21:00,
2013-05-17 01:32:00,64.0,61.0,29.93,North,0,0.0,0.0,90,75.30,,,-99.99,,2013-05-17 06:32:00,
2013-05-17 01:42:00,64.0,61.0,29.93,North,0,0.0,0.0,90,75.30,,,-99.99,,2013-05-17 06:42:00,
2013-05-17 01:52:00,65.0,62.0,29.93,North,0,0.0,0.0,90,75.30,,,-99.99,,2013-05-17 06:52:00,
2013-05-17 02:02:00,65.0,62.0,29.94,North,0,0.0,0.0,91,75.30,,,-99.99,,2013-05-17 07:02:00,
2013-05-17 02:11:00,65.0,62.0,29.94,North,0,0.0,0.0,91,75.30,,,-99.99,,2013-05-17 07:11:00,
2013-05-17 02:21:00,66.0,63.0,29.94,North,0,0.0,0.0,91,75.30,,,-99.99,,2013-05-17 07:21:00,
2013-05-17 02:32:00,65.0,63.0,29.94,WSW,245,0.0,1.0,92,75.30,,,-99.99,,2013-05-17 07:32:00,
2013-05-17 02:43:00,65.0,63.0,29.93,North,0,0.0,0.0,92,75.30,,,-99.99,,2013-05-17 07:43:00,
2013-05-17 02:53:00,65.0,63.0,29.93,North,0,0.0,0.0,92,75.30,,,-99.99,,2013-05-17 07:53:00,
2013-05-17 03:02:00,64.0,62.0,29.94,North,0,0.0,0.0,93,75.30,,,-99.99,,2013-05-17 08:02:00,
2013-05-17 03:12:00,64.0,62.0,29.94,North,0,0.0,0.0,93,75.30,,,-99.99,,2013-05-17 08:12:00,
2013-05-17 03:22:00,63.0,61.0,29.94,North,0,0.0,0.0,94,75.30,,,-99.99,,2013-05-17 08:22:00,
2013-05-17 03:33:00,63.0,61.0,29.94,North,0,0.0,0.0,94,75.30,,,-99.99,,2013-05-17 08:33:00,
2013-05-17 03:42:00,63.0,61.0,29.94,North,0,0.0,0.0,94,75.30,,,-99.99,,2013-05-17 08:42:00,
2013-05-17 03:52:00,63.0,62.0,29.94,North,0,0.0,0.0,96,75.30,,,-99.99,,2013-05-17 08:52:00,
2013-05-17 04:02:00,63.0,62.0,29.94,North,0,0.0,0.0,96,75.30,,,-99.99,,2013-05-17 09:02:00,
2013-05-17 04:12:00,63.0,62.0,29.94,North,0,0.0,0.0,96,75.30,,,-99.99,,2013-05-17 09:12:00,
2013-05-17 04:22:00,63.0,62.0,29.94,North,0,0.0,0.0,97,75.30,,,-99.99,,2013-05-17 09:22:00,
2013-05-17 04:33:00,62.0,61.0,29.95,North,0,0.0,0.0,97,75.30,,,-99.99,,2013-05-17 09:33:00,
2013-05-17 04:42:00,62.0,61.0,29.95,North,0,0.0,0.0,97,75.30,,,-99.99,,2013-05-17 09:42:00,
2013-05-17 04:53:00,62.0,61.0,29.94,North,0,0.0,0.0,97,75.30,,,-99.99,,2013-05-17 09:53:00,
2013-05-17 05:03:00,62.0,61.0,29.94,North,0,0.0,0.0,97,75.30,,,-99.99,,2013-05-17 10:03:00,
2013-05-17 05:12:00,62.0,61.0,29.94,North,0,0.0,0.0,97,75.30,,,-99.99,,2013-05-17 10:12:00,
2013-05-17 05:23:00,62.0,61.0,29.95,North,0,0.0,0.0,98,75.30,,,-99.99,,2013-05-17 10:23:00,
2013-05-17 05:32:00,62.0,61.0,29.95,North,0,0.0,0.0,98,75.30,,,-99.99,,2013-05-17 10:32:00,
2013-05-17 05:41:00,61.0,60.0,29.96,North,0,0.0,0.0,98,75.30,,,-99.99,,2013-05-17 10:41:00,
2013-05-17 05:42:00,62.0,61.0,29.95,North,0,0.0,0.0,98,75.30,,,-99.99,,2013-05-17 10:42:00,
2013-05-17 05:53:00,62.0,61.0,29.95,North,0,0.0,0.0,98,75.30,,,-99.99,,2013-05-17 10:53:00,
2013-05-17 06:02:00,61.0,60.0,29.96,North,0,0.0,0.0,98,75.30,,,-99.99,,2013-05-17 11:02:00,
2013-05-17 06:12:00,61.0,60.0,29.96,North,0,0.0,0.0,98,75.30,,,-99.99,,2013-05-17 11:12:00,
2013-05-17 06:22:00,61.0,60.0,29.96,North,0,0.0,0.0,98,75.30,,,-99.99,,2013-05-17 11:22:00,
2013-05-17 06:34:00,61.0,60.0,29.96,North,0,0.0,0.0,98,75.30,,,-99.99,,2013-05-17 11:34:00,
2013-05-17 06:53:00,61.0,61.0,29.97,North,0,0.0,0.0,99,75.30,,,-99.99,,2013-05-17 11:53:00,
2013-05-17 07:03:00,62.0,62.0,29.97,North,0,0.0,0.0,100,75.30,,,-99.99,,2013-05-17 12:03:00,
2013-05-17 07:12:00,64.0,64.0,29.98,SE,145,0.0,3.0,100,75.30,,,-99.99,,2013-05-17 12:12:00,
2013-05-17 07:23:00,64.0,64.0,29.98,SE,145,0.0,3.0,100,75.30,,,-99.99,,2013-05-17 12:23:00,
2013-05-17 07:32:00,65.0,65.0,29.98,SE,143,0.0,2.0,100,75.30,,,-99.99,,2013-05-17 12:32:00,
2013-05-17 07:43:00,65.0,65.0,29.98,SE,143,0.0,2.0,100,75.30,,,-99.99,,2013-05-17 12:43:00,
2013-05-17 07:53:00,65.0,65.0,29.98,North,0,0.0,0.0,99,75.30,,,-99.99,,2013-05-17 12:53:00,
2013-05-17 08:03:00,67.0,66.0,29.98,WSW,243,0.0,2.0,97,75.30,,,-99.99,,2013-05-17 13:03:00,
2013-05-17 08:12:00,67.0,66.0,29.98,WSW,243,0.0,2.0,97,75.30,,,-99.99,,2013-05-17 13:12:00,
2013-05-17 08:23:00,69.0,67.0,29.98,West,274,0.0,2.0,92,75.30,,,-99.99,,2013-05-17 13:23:00,
2013-05-17 08:33:00,71.0,66.0,29.99,East,84,0.0,1.0,84,75.30,,,-99.99,,2013-05-17 13:33:00,
2013-05-17 08:42:00,71.0,66.0,29.99,East,84,0.0,1.0,84,75.30,,,-99.99,,2013-05-17 13:42:00,
2013-05-17 08:52:00,73.0,65.0,29.99,ENE,65,1.0,3.0,77,75.30,,,-99.99,,2013-05-17 13:52:00,
2013-05-17 09:02:00,74.0,64.0,29.99,SE,139,2.0,6.0,71,75.30,,,-99.99,,2013-05-17 14:02:00,
2013-05-17 09:13:00,74.0,64.0,29.99,SE,139,2.0,6.0,71,75.30,,,-99.99,,2013-05-17 14:13:00,
2013-05-17 09:22:00,74.0,64.0,29.99,SE,142,1.0,2.0,71,75.30,,,-99.99,,2013-05-17 14:22:00,
2013-05-17 09:34:00,75.0,63.0,29.99,South,169,0.0,2.0,66,75.30,,,-99.99,,2013-05-17 14:34:00,
2013-05-17 09:43:00,75.0,63.0,29.99,South,169,0.0,2.0,66,75.30,,,-99.99,,2013-05-17 14:43:00,
2013-05-17 09:53:00,76.0,64.0,29.98,East,86,1.0,4.0,67,75.30,,,-99.99,,2013-05-17 14:53:00,
2013-05-17 10:03:00,78.0,65.0,29.98,SSE,165,1.0,3.0,64,75.30,,,-99.99,,2013-05-17 15:03:00,
2013-05-17 10:14:00,78.0,65.0,29.98,SSE,165,1.0,3.0,64,75.30,,,-99.99,,2013-05-17 15:14:00,
2013-05-17 10:25:00,78.0,63.0,29.98,East,100,0.0,3.0,61,75.30,,,-99.99,,2013-05-17 15:25:00,
2013-05-17 10:37:00,79.0,63.0,29.98,ESE,121,1.0,5.0,59,75.30,,,-99.99,,2013-05-17 15:37:00,
2013-05-17 10:47:00,79.0,63.0,29.98,ESE,121,1.0,5.0,59,75.30,,,-99.99,,2013-05-17 15:47:00,
2013-05-17 10:57:00,79.0,64.0,29.98,SE,125,1.0,4.0,60,75.30,,,-99.99,,2013-05-17 15:57:00,
2013-05-17 11:07:00,79.0,62.0,29.98,South,183,2.0,9.0,56,75.30,,,-99.99,,2013-05-17 16:07:00,
2013-05-17 11:13:00,79.0,62.0,29.98,South,183,2.0,9.0,56,75.30,,,-99.99,,2013-05-17 16:13:00,
2013-05-17 11:26:00,79.0,62.0,29.97,South,176,1.0,4.0,57,75.30,,,-99.99,,2013-05-17 16:26:00,
2013-05-17 11:37:00,80.0,63.0,29.97,West,267,2.0,9.0,57,75.30,,,-99.99,,2013-05-17 16:37:00,
2013-05-17 11:49:00,80.0,63.0,29.97,West,267,2.0,9.0,57,75.30,,,-99.99,,2013-05-17 16:49:00,
2013-05-17 11:56:00,81.0,63.0,29.97,SW,221,2.0,9.0,54,75.30,,,-99.99,,2013-05-17 16:56:00,
2013-05-17 12:08:00,81.0,62.0,29.97,SE,124,2.0,8.0,52,75.30,,,-99.99,,2013-05-17 17:08:00,
2013-05-17 12:18:00,81.0,62.0,29.97,SE,124,2.0,8.0,52,75.30,,,-99.99,,2013-05-17 17:18:00,
2013-05-17 12:30:00,80.0,61.0,29.97,SW,228,2.0,7.0,53,75.30,,,-99.99,,2013-05-17 17:30:00,
2013-05-17 12:40:00,80.0,-99.9,29.97,West,269,1.0,4.0,54,75.30,,,-99.99,,2013-05-17 17:40:00,
2013-05-17 12:49:00,80.0,62.0,29.97,West,269,1.0,4.0,54,75.30,,,-99.99,,2013-05-17 17:49:00,
2013-05-17 13:00:00,80.0,62.0,29.96,WSW,245,1.0,9.0,55,75.30,,,-99.99,,2013-05-17 18:00:00,
2013-05-17 13:08:00,80.0,61.0,29.96,South,190,1.0,6.0,53,75.30,,,-99.99,,2013-05-17 18:08:00,
2013-05-17 13:20:00,80.0,61.0,29.96,South,190,1.0,6.0,53,75.30,,,-99.99,,2013-05-17 18:20:00,
2013-05-17 13:30:00,80.0,60.0,29.96,NNW,345,2.0,8.0,51,75.30,,,-99.99,,2013-05-17 18:30:00,
2013-05-17 13:40:00,80.0,-99.9,29.95,SW,229,1.0,11.0,51,75.30,,,-99.99,,2013-05-17 18:40:00,
2013-05-17 13:50:00,-999.0,-99.9,29.95,SW,229,1.0,11.0,51,75.30,,,-99.99,,2013-05-17 18:50:00,
2013-05-17 14:00:00,81.0,61.0,29.95,WSW,238,2.0,7.0,50,75.30,,,-99.99,,2013-05-17 19:00:00,
2013-05-17 14:10:00,82.0,61.0,29.94,NW,321,2.0,7.0,49,75.30,,,-99.99,,2013-05-17 19:10:00,
2013-05-17 14:20:00,82.0,62.0,29.94,West,259,3.0,10.0,51,75.30,,,-99.99,,2013-05-17 19:20:00,
2013-05-17 14:30:00,82.0,62.0,29.94,West,259,3.0,10.0,51,75.30,,,-99.99,,2013-05-17 19:30:00,
2013-05-17 14:40:00,83.0,62.0,29.94,NNW,342,2.0,6.0,49,75.30,,,-99.99,,2013-05-17 19:40:00,
2013-05-17 14:50:00,83.0,62.0,29.94,NNW,342,2.0,6.0,49,75.30,,,-99.99,,2013-05-17 19:50:00,
2013-05-17 15:01:00,-999.0,-99.9,29.94,WNW,284,2.0,7.0,50,75.30,,,-99.99,,2013-05-17 20:01:00,
2013-05-17 15:09:00,82.0,61.0,29.94,West,266,2.0,8.0,49,75.30,,,-99.99,,2013-05-17 20:09:00,
2013-05-17 15:20:00,82.0,61.0,29.94,West,266,2.0,8.0,49,75.30,,,-99.99,,2013-05-17 20:20:00,
2013-05-17 15:30:00,81.0,62.0,29.94,SSW,197,2.0,6.0,52,75.30,,,-99.99,,2013-05-17 20:30:00,
2013-05-17 15:40:00,81.0,62.0,29.94,SW,226,1.0,5.0,53,75.30,,,-99.99,,2013-05-17 20:40:00,
2013-05-17 15:49:00,81.0,62.0,29.94,SW,226,1.0,5.0,53,75.30,,,-99.99,,2013-05-17 20:49:00,
2013-05-17 15:58:00,80.0,61.0,29.93,SW,219,2.0,10.0,52,75.30,,,-99.99,,2013-05-17 20:58:00,
2013-05-17 16:07:00,80.0,60.0,29.93,WNW,288,2.0,6.0,51,75.30,,,-99.99,,2013-05-17 21:07:00,
2013-05-17 16:17:00,80.0,60.0,29.93,WNW,288,2.0,6.0,51,75.30,,,-99.99,,2013-05-17 21:17:00,
2013-05-17 16:26:00,80.0,59.0,29.93,SW,221,2.0,5.0,49,75.30,,,-99.99,,2013-05-17 21:26:00,
2013-05-17 16:39:00,80.0,57.0,29.93,West,277,2.0,7.0,46,75.30,,,-99.99,,2013-05-17 21:39:00,
2013-05-17 16:49:00,80.0,56.0,29.93,SW,235,1.0,7.0,44,75.30,,,-99.99,,2013-05-17 21:49:00,
2013-05-17 16:58:00,80.0,56.0,29.93,SW,235,1.0,7.0,44,75.30,,,-99.99,,2013-05-17 21:58:00,
2013-05-17 17:06:00,80.0,61.0,29.92,SE,134,1.0,4.0,52,75.30,,,-99.99,,2013-05-17 22:06:00,
2013-05-17 17:17:00,80.0,61.0,29.92,SE,134,1.0,4.0,52,75.30,,,-99.99,,2013-05-17 22:17:00,
2013-05-17 17:28:00,80.0,60.0,29.92,SW,221,1.0,4.0,50,75.30,,,-99.99,,2013-05-17 22:28:00,
2013-05-17 17:38:00,81.0,54.0,29.93,NNW,342,3.0,7.0,40,75.30,,,-99.99,,2013-05-17 22:38:00,
2013-05-17 17:47:00,81.0,54.0,29.93,NNW,342,3.0,7.0,40,75.30,,,-99.99,,2013-05-17 22:47:00,
2013-05-17 17:54:00,80.0,55.0,29.93,SW,217,2.0,7.0,42,75.30,,,-99.99,,2013-05-17 22:54:00,
2013-05-17 18:04:00,79.0,58.0,29.93,SW,214,1.0,6.0,49,75.30,,,-99.99,,2013-05-17 23:04:00,
2013-05-17 18:13:00,79.0,58.0,29.93,SW,214,1.0,6.0,49,75.30,,,-99.99,,2013-05-17 23:13:00,
2013-05-17 18:23:00,78.0,59.0,29.94,North,349,1.0,5.0,52,75.30,,,-99.99,,2013-05-17 23:23:00,
2013-05-17 18:37:00,78.0,61.0,29.94,SSE,165,2.0,10.0,55,75.30,,,-99.99,,2013-05-17 23:37:00,
2013-05-17 18:47:00,78.0,61.0,29.94,SSE,165,2.0,10.0,55,75.30,,,-99.99,,2013-05-17 23:47:00,
2013-05-17 18:54:00,78.0,60.0,29.94,SW,225,2.0,10.0,54,75.30,,,-99.99,,2013-05-17 23:54:00,
2013-05-17 19:02:00,77.0,60.0,29.94,SSW,207,2.0,9.0,56,75.30,,,-99.99,,2013-05-18 00:02:00,
2013-05-17 19:14:00,77.0,60.0,29.94,SSW,207,2.0,9.0,56,75.30,,,-99.99,,2013-05-18 00:14:00,
2013-05-17 19:21:00,76.0,59.0,29.95,SSW,195,1.0,6.0,55,75.30,,,-99.99,,2013-05-18 00:21:00,
2013-05-17 19:33:00,75.0,58.0,29.96,SSW,203,1.0,6.0,56,75.30,,,-99.99,,2013-05-18 00:33:00,
2013-05-17 19:44:00,75.0,58.0,29.96,SSW,203,1.0,6.0,56,75.30,,,-99.99,,2013-05-18 00:44:00,
2013-05-17 19:54:00,74.0,59.0,29.97,North,0,0.0,0.0,59,75.30,,,-99.99,,2013-05-18 00:54:00,
2013-05-17 20:02:00,73.0,60.0,29.97,North,0,0.0,0.0,63,75.30,,,-99.99,,2013-05-18 01:02:00,
2013-05-17 20:13:00,73.0,60.0,29.97,North,0,0.0,0.0,63,75.30,,,-99.99,,2013-05-18 01:13:00,
2013-05-17 20:24:00,72.0,60.0,29.97,WNW,302,0.0,2.0,66,75.30,,,-99.99,,2013-05-18 01:24:00,
2013-05-17 20:32:00,71.0,60.0,29.98,West,264,0.0,1.0,68,75.30,,,-99.99,,2013-05-18 01:32:00,
2013-05-17 20:42:00,71.0,60.0,29.98,West,264,0.0,1.0,68,75.30,,,-99.99,,2013-05-18 01:42:00,
2013-05-17 20:52:00,71.0,60.0,29.98,WNW,293,0.0,2.0,69,75.30,,,-99.99,,2013-05-18 01:52:00,
2013-05-17 21:02:00,70.0,60.0,29.98,North,0,0.0,0.0,71,75.30,,,-99.99,,2013-05-18 02:02:00,
2013-05-17 21:12:00,70.0,60.0,29.98,North,0,0.0,0.0,71,75.30,,,-99.99,,2013-05-18 02:12:00,
2013-05-17 21:22:00,69.0,60.0,29.99,North,0,0.0,0.0,72,75.30,,,-99.99,,2013-05-18 02:22:00,
2013-05-17 21:31:00,69.0,60.0,29.99,North,0,0.0,0.0,72,75.30,,,-99.99,,2013-05-18 02:31:00,
2013-05-17 21:42:00,69.0,60.0,29.99,North,0,0.0,0.0,72,75.30,,,-99.99,,2013-05-18 02:42:00,
2013-05-17 21:53:00,69.0,61.0,29.99,West,259,0.0,1.0,75,75.30,,,-99.99,,2013-05-18 02:53:00,
2013-05-17 22:03:00,68.0,60.0,29.99,North,0,0.0,0.0,76,75.30,,,-99.99,,2013-05-18 03:03:00,
2013-05-17 22:12:00,68.0,60.0,29.99,North,0,0.0,0.0,76,75.30,,,-99.99,,2013-05-18 03:12:00,
2013-05-17 22:22:00,68.0,61.0,29.99,North,0,0.0,0.0,78,75.30,,,-99.99,,2013-05-18 03:22:00,
2013-05-17 22:32:00,67.0,61.0,29.99,North,0,0.0,0.0,80,75.30,,,-99.99,,2013-05-18 03:32:00,
2013-05-17 22:43:00,67.0,61.0,29.99,North,0,0.0,0.0,80,75.30,,,-99.99,,2013-05-18 03:43:00,
2013-05-17 22:53:00,66.0,60.0,29.99,North,0,0.0,0.0,82,75.30,,,-99.99,,2013-05-18 03:53:00,
2013-05-17 23:02:00,66.0,61.0,30.00,North,0,0.0,0.0,84,75.30,,,-99.99,,2013-05-18 04:02:00,
2013-05-17 23:12:00,66.0,61.0,30.00,North,0,0.0,0.0,84,75.30,,,-99.99,,2013-05-18 04:12:00,
2013-05-17 23:23:00,65.0,61.0,30.00,North,0,0.0,0.0,86,75.30,,,-99.99,,2013-05-18 04:23:00,
2013-05-17 23:33:00,65.0,61.0,29.99,North,0,0.0,0.0,87,75.30,,,-99.99,,2013-05-18 04:33:00,
2013-05-17 23:42:00,65.0,61.0,29.99,North,0,0.0,0.0,87,75.30,,,-99.99,,2013-05-18 04:42:00,
2013-05-17 23:52:00,64.0,60.0,29.99,North,0,0.0,0.0,88,75.30,,,-99.99,,2013-05-18 04:52:00,